Location: Goincourt
(49.4261°N, 2.0362°E)
Time: 01:57:46
(UTC+00:00)

Daily predictions for brighter satellites

Satellite Brightness Start Highest point End
(mag) Time Altitude Azimuth Time Altitude Azimuth Time Altitude Azimuth
ACS3 Solar Sail 4.2 03:40:24 10° N 03:40:27 10° N 03:40:27 10° N
SL-16 R/B 4.0 03:46:48 23° NNE 03:47:34 24° NE 03:52:04 10° E
Cosmos 2082 Rocket 3.8 03:49:32 26° SE 03:51:13 30° ESE 03:56:03 10° NE
COSMOS 2455 3.5 03:58:09 53° ENE 03:58:09 53° ENE 04:03:21 10° SE
ATLAS 3B R/B 4.2 03:59:03 28° N 03:59:30 28° N 04:06:05 10° ENE
Cosmos 1980 Rocket 3.5 04:14:14 31° SSE 04:14:14 31° SSE 04:16:59 10° SSE
Cosmos 2369 4.0 04:16:15 65° E 04:16:15 65° E 04:21:29 10° SE
COSMO-SKYMED 1 4.4 04:18:40 10° ESE 04:22:08 27° ENE 04:22:50 25° NE
Aureole 1 Rocket 4.3 04:20:44 55° NNW 04:22:33 82° ENE 04:30:03 10° SSE
Cosmos 2180 Rocket 4.5 04:23:51 46° N 04:25:54 81° E 04:32:15 10° SSE
Cosmos 1937 Rocket 4.2 04:25:55 44° NNE 04:26:41 48° ENE 04:31:37 10° SE
Cosmos 372 Rocket 4.2 04:33:38 60° SE 04:33:38 60° SE 04:37:47 10° SSE
Cosmos 2333 Rocket 3.5 04:33:56 23° N 04:36:45 36° NE 04:42:01 10° ESE
NOSS 3-1 (A) 4.5 04:37:46 33° NNW 04:40:44 52° NE 04:48:55 10° ESE
Cosmos 1606 Rocket 3.9 04:43:12 64° E 04:43:12 64° E 04:47:25 10° SSE
Cosmos 2360 Rocket 3.8 04:40:11 18° N 04:43:25 29° NE 04:48:16 10° ESE
Cosmos 2142 Rocket 4.3 04:47:06 54° NW 04:48:23 68° W 04:54:31 10° S
Cosmos 540 Rocket 4.5 04:56:49 32° N 04:56:49 32° N 04:59:49 10° NNE
USA 234 3.8 04:49:46 10° ENE 04:55:58 46° N 04:57:47 37° NW
Helios 1A Rocket 3.6 04:53:02 10° SE 04:55:47 42° E 04:55:47 42° E
SeaSat 1 4.2 04:56:29 10° NNE 04:58:20 19° N 04:58:20 19° N
SL-4 R/B 2.9 05:03:15 34° ENE 05:03:15 34° ENE 05:05:18 10° E
Cosmos 2219 Rocket 4.0 04:58:08 13° N 05:02:11 26° NE 05:06:53 10° E
ATLAS 5 CENTAUR R/B 3.6 05:05:56 12° NNE 05:05:56 12° NNE 05:06:17 10° NNE
Cosmos 2322 Rocket 3.2 05:01:43 18° NNW 05:05:38 42° NE 05:11:01 10° ESE
Cosmos 1726 Rocket 3.4 05:08:07 44° N 05:09:29 87° E 05:13:44 10° S
Meteor 2-3 Rocket 4.0 05:05:26 10° S 05:11:07 68° E 05:16:46 10° NNE
Cosmos 489 Rocket 4.5 05:08:47 10° SSW 05:15:06 84° ESE 05:21:25 10° NNE
CZ-4 R/B 3.7 05:10:34 10° NNE 05:15:16 85° ESE 05:19:52 10° SSW
Nadezhda 4 Rocket 3.9 05:09:50 10° SSW 05:16:08 75° W 05:22:27 10° N
Cosmos 1428 Rocket 4.4 05:11:00 10° S 05:17:14 86° W 05:23:34 10° N
NOSS 2-1 (D) 3.9 05:17:47 42° SSW 05:17:47 42° SSW 05:21:43 10° SSE
Cosmos 2237 4.2 05:15:45 40° NW 05:17:45 64° WSW 05:23:21 10° SSE
CZ-2C R/B 4.3 05:14:44 10° N 05:16:11 17° NNW 05:16:11 17° NNW
USA 59 Rocket 0.6 05:20:26 38° SW 05:20:26 38° SW 05:24:24 10° SSE
Cosmos 841 Rocket 3.4 05:17:50 10° SSW 05:23:04 82° WNW 05:28:22 10° NNE
COSMOS 2406 3.3 05:17:55 10° SSW 05:23:35 80° ESE 05:29:17 10° NNE
NOSS 2-1 (E) 3.6 05:25:12 47° SW 05:25:13 47° SW 05:29:36 10° SSE
NOSS 3-1 (C) 4.0 05:21:26 30° NW 05:25:20 67° SW 05:34:03 10° SSE
Cosmos 1833 Rocket 4.1 05:28:01 20° NNW 05:28:01 20° NNW 05:31:18 10° N
Cosmos 1892 Rocket 3.5 05:25:42 10° S 05:30:03 88° ESE 05:34:29 10° N
Cosmos 2195 Rocket 4.4 05:24:17 10° S 05:30:34 85° W 05:36:56 10° N
SL-16 R/B 2.1 05:28:40 23° NNW 05:32:22 84° WSW 05:38:02 10° SSE
Cosmos 2082 Rocket 2.3 05:31:29 21° WSW 05:35:02 52° NW 05:40:32 10° NNE
IRS-1D 3.5 05:37:31 10° N 05:42:22 52° WNW 05:47:15 10° SW
COSMOS 2455 3.5 05:41:19 28° WNW 05:43:08 34° WSW 05:48:26 10° S
Cosmos 1898 Rocket 4.2 05:42:42 30° WNW 05:43:47 33° WSW 05:48:24 10° SSW
NOSS 2-1 (C) 4.3 05:44:49 28° WSW 05:45:12 28° SW 05:49:10 10° S
Meteor 2-20 4.4 05:39:11 10° NNW 05:45:17 68° W 05:51:17 10° S
Orbus 7S? 3.0 05:47:32 38° NNW 05:48:11 49° NNE 05:50:50 10° ESE
Cosmos 405 Rocket 4.2 05:45:48 10° SSE 05:48:45 32° E 05:51:44 10° NNE
NOSS 3-4 (A) 4.5 05:49:57 21° NW 05:52:04 25° NNW 05:57:16 10° NE
NOSS 3-4 (C) 4.5 05:50:06 21° NW 05:52:13 25° NNW 05:57:26 10° NE
ATLAS 3B R/B 3.9 05:46:18 14° NW 05:52:30 39° NNE 05:59:35 10° E
Cosmos-2242 2.8 05:49:37 10° NNW 05:53:52 72° W 05:58:03 10° S
Cosmos 1980 Rocket 4.0 05:56:02 13° WSW 05:56:02 13° WSW 05:57:16 10° SW
Cosmos 2278 3.7 05:51:02 17° NW 05:55:27 66° WSW 06:01:01 10° SSE
COSMO-SKYMED 1 3.1 05:53:34 10° SSW 05:57:20 34° W 05:59:09 23° NW
Cosmos 2058 Rocket 3.1 05:56:37 10° NNW 06:01:01 57° W 06:05:19 10° S
Cosmos 1484 Rocket 2.3 05:57:38 10° N 06:01:03 71° WNW 06:04:25 10° SSW
Cosmos 1627 Rocket 4.4 05:57:05 10° SSW 06:03:07 62° WNW 06:09:14 10° N
Meteor 2-2 Rocket 4.2 05:58:39 10° NNW 06:04:16 63° W 06:09:56 10° S
Cosmos 1346 Rocket 4.5 06:07:59 15° NNW 06:07:59 15° NNW 06:08:58 10° NNW
Okean 1 3.0 06:03:39 13° NNW 06:06:47 56° W 06:10:15 10° S
Meteor 2-20 Rocket 4.3 06:01:44 10° NNW 06:07:28 64° W 06:13:04 10° S
Cosmos 1937 Rocket 4.4 06:06:02 20° WNW 06:08:17 27° W 06:12:32 10° SSW
Cosmos 220 Rocket 4.5 06:04:58 10° WSW 06:08:41 33° WNW 06:12:27 10° N
ARIANE 5 R/B 3.7 06:08:05 10° NNE 06:13:08 48° E 06:18:10 10° S
Cosmos 2285 Rocket 4.0 06:07:03 10° NNW 06:13:28 87° WSW 06:19:53 10° SSE
ATLAS 2AS CENTAUR R/B 4.4 06:08:48 10° S 06:15:07 37° ESE 06:21:20 10° NE
SL-08 ROCKET BODY 4.5 06:10:42 10° S 06:16:33 81° E 06:22:25 10° N
IRIDIUM 104 4.3 06:13:11 10° S 06:18:24 81° W 06:23:40 10° N
Cosmos 2333 Rocket 2.5 06:15:59 11° NW 06:21:14 49° WSW 06:26:44 10° S
SAR-Lupe-4 4.3 06:19:55 10° NNE 06:23:26 55° E 06:26:55 10° S
SMAP 3.2 06:19:43 10° NNE 06:24:25 82° ESE 06:29:05 10° SSW
IRIDIUM 114 4.3 06:22:22 10° SSW 06:27:34 69° W 06:32:47 10° N
Cosmos 2360 Rocket 2.3 06:22:15 10° NW 06:27:48 62° WSW 06:33:19 10° SSE
Helios 1A Rocket 4.3 06:27:22 10° WSW 06:29:05 13° W 06:29:20 13° W
Landsat 7 4.0 06:25:41 10° NNE 06:30:22 77° ESE 06:35:02 10° S
NOSS 3-1 (A) 4.3 06:25:10 11° NW 06:31:54 57° WSW 06:40:31 10° SSE
Cosmos 2026 Rocket 4.4 06:27:13 10° SW 06:32:47 37° WNW 06:38:26 10° N
CBERS-1 4.0 06:28:02 10° N 06:33:04 60° WNW 06:38:04 10° SSW
IGS 5A 3.7 06:30:08 10° N 06:33:55 41° WNW 06:37:41 10° SW
Cosmos 1814 Rocket 4.0 06:29:02 10° SSW 06:34:16 79° WNW 06:39:36 10° NNE
BREEZE-M DEB (TANK) 2.9 06:34:37 13° W 06:35:59 31° SSW 06:38:21 10° SE
Cosmos 2237 Rocket 4.0 06:31:53 10° N 06:36:21 23° NE 06:40:48 10° E
IRIDIUM 103 4.4 06:31:38 10° SSW 06:36:45 57° W 06:41:56 10° N
USA 234 3.6 06:31:59 10° E 06:38:26 61° NNE 06:44:52 10° WNW
SL-4 R/B 1.4 06:36:58 13° WNW 06:39:50 76° SSW 06:42:59 10° ESE
Cosmos 1758 Rocket 3.6 06:36:15 10° SSW 06:40:38 63° WNW 06:45:01 10° N
Cosmos 1733 2.3 06:39:48 10° SW 06:41:27 27° WNW 06:43:07 10° NNW
Cosmos 1743 2.2 06:38:28 10° SSW 06:41:41 72° W 06:44:57 10° N
IRS-1C 4.4 06:37:00 10° NNE 06:42:22 78° ESE 06:47:41 10° SSW
Thor Agena Rocket 3.5 06:40:33 10° N 06:45:35 66° WNW 06:50:34 10° SSW
BREEZE-M DEB (TANK) 3.2 06:42:58 10° W 06:45:48 89° SSE 06:53:45 10° E
Cosmos 2219 Rocket 2.2 06:41:02 10° NNW 06:46:42 73° WSW 06:52:17 10° SSE
Cosmos 192 4.3 06:42:05 10° NNW 06:47:02 81° WSW 06:51:56 10° SSE
Cosmos 2322 Rocket 2.8 06:44:23 10° NW 06:49:38 39° WSW 06:54:51 10° S
S3M 4.0 06:44:09 10° N 06:50:24 86° W 06:56:32 10° S
Cosmos 1553 Rocket 4.4 06:46:57 10° NNW 06:52:54 43° W 06:58:52 10° SSW
USA 229 4.3 06:48:04 10° NW 06:55:18 63° NE 07:03:17 10° ESE
USA 229 DEB 4.3 06:48:10 10° NW 06:55:23 63° NE 07:03:22 10° ESE
Cosmos 2322 4.2 06:49:52 10° NNW 06:55:30 62° ENE 07:01:06 10° SE
SJ-12 3.8 06:53:59 10° N 06:57:45 60° WNW 07:01:30 10° SSW
SKYMED 3 4.4 06:54:44 10° SSE 06:58:45 85° WSW 07:02:47 10° NNW
Resurs 01 Rocket 4.4 06:56:13 10° NE 06:59:36 21° E 07:02:57 10° SE
YAOGAN 1 3.8 06:56:34 10° NNE 07:00:42 46° E 07:04:49 10° S
